星链-34991 (STARLINK-34991)

导读 | 豆包AI

STARLINK-34991是美国太空探索技术公司(SpaceX)星链(Starlink)星座的一颗卫星,于2025年9月3日发射入轨。星链计划旨在构建全球卫星互联网星座,为全球偏远地区、海洋等场景提供高速宽带网络服务,该卫星是星链星座扩容过程中的一环,助力全球覆盖网络的进一步完善。

基本信息
目录编号:
65446
目录名称:
STARLINK-34991
国际标识:
2025-194N
轨道中心:
EARTH
卫星名称:
星链-34991
卫星全名:
星链-34991 (STARLINK-34991)
卫星状态:
在轨 (已飞行213 天)
发射日期:
2025-09-03 UTC
国别 :
美国 (US)
星等 :
--
轨道信息
数据来源 国际轨道数据 AOE轨道数据
星历时间 2026-04-03T21:43:05+0800
21小时前
查看轨道信息
2026-03-30T09:00:00+0800
5天前
查看轨道信息
半长轴 6927.623km 6927.664km
偏心率 0.000219 0.0001859
轨道倾角 97.601° 97.603°
近地点辐角 86.345° 83.371°
升交点赤经 308.947° 304.482°
平近点角 273.803° 218.515°
近地点 547.968km 548.239km
远地点 551.004km 550.815km
周期 95.639分钟 95.640分钟
每日圈数 15.056584 15.056449
详细信息
固有亮度:
5
最大亮度:
2.5
卫星平台:
Starlink V1.0
覆盖范围:
全球
运营商:
太空探索技术公司
运营商所在国:
美国
制造商(研发单位):
太空探索技术公司
制造商所在国:
美国
使用方式:
暂无
卫星简介
Starlink 计划是 SpaceX 推出的全球卫星互联网项目,通过发射低轨道卫星,为全球尤其是偏远地区提供高速、低延迟的互联网服务。自 2019 年起,Starlink 已部署数千颗卫星,旨在缩小全球数字鸿沟,推动互联网普及。该项目还为军事、航空等行业提供通信支持,带来广泛经济效益。
2D轨道图
3D轨道图
轨道高度分析图
轨道倾角分析图
轨道综合分析图
查看轨道综合分析图